Location: Unspecified
(48.2082°N, 0.0000°E)
Time: 03:20:35
(UTC+00:00)

Tiros 1 - Visible Passes

Search period start: 20 June 2019 00:00
Search period end: 30 June 2019 00:00
Orbit: 631 x 664 km, 48.4° (Epoch: 19 June)

Date Brightness Start Highest point End Pass type
(mag) Time Alt. Az. Time Alt. Az. Time Alt. Az.
20 Jun 7.7 00:19:07 36° SSE 00:19:25 36° SSE 00:23:41 10° E visible
20 Jun 7.0 01:56:43 10° WSW 02:01:21 83° S 02:05:59 10° E visible
20 Jun 9.0 23:05:37 15° ESE 23:05:37 15° ESE 23:07:03 10° E visible
21 Jun 7.1 00:43:13 30° SW 00:45:20 58° SSE 00:49:54 10° E visible
21 Jun 7.1 02:22:48 10° W 02:27:29 87° N 02:32:07 10° E visible
21 Jun 7.7 23:29:32 34° SSE 23:29:32 34° SSE 23:33:41 10° E visible
22 Jun 7.0 01:07:07 12° WSW 01:11:22 81° SSE 01:16:01 10° E visible
22 Jun 7.1 02:48:56 10° W 02:53:36 89° SSW 02:58:16 10° E visible
22 Jun 8.9 22:15:29 15° ESE 22:15:29 15° ESE 22:16:58 10° E visible
22 Jun 7.1 23:53:02 27° SW 23:55:21 56° SSE 23:59:55 10° E visible
23 Jun 7.1 01:32:47 10° W 01:37:29 87° N 01:42:09 10° E visible
23 Jun 7.1 03:15:04 10° W 03:19:42 71° SSW 03:24:18 10° ESE visible
23 Jun 7.8 22:37:55 26° S 22:39:31 32° SSE 22:43:40 10° E visible
24 Jun 7.0 00:16:41 10° WSW 00:21:22 79° SSE 00:26:03 10° E visible
24 Jun 7.1 01:58:56 10° W 02:03:37 90° NW 02:08:17 10° E visible
24 Jun 8.6 21:20:52 10° S 21:23:52 17° SE 21:26:53 10° E visible
24 Jun 7.2 23:00:48 10° SW 23:05:23 53° SSE 23:09:56 10° E visible
25 Jun 7.1 00:42:47 10° W 00:47:30 88° N 00:52:10 10° E visible
25 Jun 7.0 02:25:04 10° W 02:29:43 74° SSW 02:34:20 10° ESE visible
25 Jun 7.8 21:45:25 10° SSW 21:49:33 31° SSE 21:53:40 10° E visible
25 Jun 7.0 23:26:41 10° WSW 23:31:24 77° SSE 23:36:04 10° E visible
26 Jun 7.1 01:08:56 10° W 01:13:38 89° N 01:18:18 10° E visible
26 Jun 7.3 02:51:13 10° W 02:55:43 50° SSW 03:00:11 10° SE visible
26 Jun 7.2 22:10:50 10° SW 22:15:24 51° SSE 22:19:57 10° E visible
26 Jun 7.1 23:52:47 10° W 23:57:30 88° N 00:02:11 10° E visible
27 Jun 7.0 01:35:04 10° W 01:39:44 76° SSW 01:44:22 10° ESE visible
27 Jun 7.9 03:17:30 10° W 03:21:33 30° SW 03:25:33 10° SSE visible
27 Jun 8.0 20:55:31 10° SSW 20:59:36 29° SE 21:03:39 10° E visible
27 Jun 7.0 22:36:41 10° WSW 22:41:24 75° SSE 22:46:05 10° E visible
28 Jun 7.1 00:18:56 10° W 00:23:38 88° N 00:28:19 10° E visible
28 Jun 7.2 02:01:12 10° W 02:05:44 52° SSW 02:10:15 10° SE visible
28 Jun 7.3 21:20:52 10° SW 21:25:26 49° SSE 21:29:58 10° E visible
28 Jun 7.1 23:02:46 10° W 23:07:31 89° N 23:12:12 10° E visible
29 Jun 7.0 00:45:03 10° W 00:49:45 78° SSW 00:54:24 10° ESE visible
29 Jun 7.8 02:27:28 10° W 02:31:36 31° SSW 02:35:40 10° SSE visible
29 Jun 7.0 21:46:41 10° WSW 21:51:25 73° SSE 21:56:05 10° E visible
29 Jun 7.1 23:28:55 10° W 23:33:39 87° N 23:38:20 10° E visible
